User: anonymous   Login
Location: Unspecified
(0.0000°N, 0.0000°E)
Time: 05:55:21
(UTC+01:00)
Language:

ADEOS II - Orbit

View from above orbital plane
View from above orbital plane
View from above satellite
View from above satellite

Ground track
Ground track

The orbit data is extracted from the following two-line orbital elements,

1 27597U 02056A   14327.49308558  .00000363  00000-0  16609-3 0  4589
2 27597 098.2781 326.8542 0001359 147.4059 005.8419 14.26924846621816
Epoch (UTC): 23 November 2014 11:50:02
Eccentricity: 0.0001359
inclination: 98.2781°
perigee height: 801 km
apogee height: 803 km
right ascension of ascending node: 326.8542°
argument of perigee: 147.4059°
revolutions per day: 14.26924846
mean anomaly at epoch: 5.8419°
orbit number at epoch: 62181

The dashed part of the orbit path shows where the satellite is in the earth's shadow,  

DLR